STARLINK-1434, 45712

Orbit data source: Space-Track

STARLINK-1434, 45712 is a payload satellite owned by SpaceX/Seattle (US) in LEO that was launched on Thu, 04 Jun 2020 UTC via an FALCON 9 launch vehicle from the Air Force Eastern Test Range (AFETR). Payload-class satellites include a variety of spacecraft equipped with specific instruments for various scientific and technological missions. These include communications satellites like Starlink; space stations such as the ISS; scientific satellites like the Hubble; Earth observation satellites from companies like Planet Labs, Umbra, and HawkEye 360; GPS; miniature CubeSats for education and research; and military/defense satellites.

Loading next visibility...
Identifier
45712, 2020-035BH
Orbit
LEO
Country
Flag of USUS
Related business
Manufacturer
SpaceX/Seattle
Mission
Partially operational Commercial Communications
Bus & Motor
STARLINK, Unknown motor
Mass
260 kg wet, ~248 kg dry
Launch date (UTC)
2020-06-04 (6 years ago)
Launch vehicle
FALCON 9
Launch site
Air Force Eastern Test Range (AFETR)
Object type
Payload
Rocket body
Debris
Shape & HBR
Box + 1 Pan, 10.1 m
Radar Cross Section
13.562 m², Large (>1 m²)

Expand to show TLE details & history
Last TLE update: 20 hours ago

TLE from 20 hours ago
0 STARLINK-1434
1 45712U 20035BH  25347.22829878  .00038510  00000-0  18455-2 0  9998
2 45712  53.0517  57.7620 0002181 215.7318 144.3531 15.18576264306227
Epoch: 2025-12-13T05:28Z
TLE epoch observation values (Epoch: 2025-12-13T05:28:45.014Z)
Latitude
Longitude
-106.58414°
Altitude
512.247 km
Speed
7.608 km/s
True Right ascension
03h 51m 02s
True Declination
0° 00' 00"
Sunlit
Object was in full shadow at epoch
Visualization orbit readout
Latitude
Unknown
Longitude
Unknown
Altitude
Unknown
Speed
Unknown
Apparent Right ascension
Unknown
Apparent Declination
Unknown
Sunlit
N/A
Visualization observer readout
Local Sidereal Time
00:15:48
Azimuth
Unknown
Elevation
Unknown
Doppler factor
Unknown
Orbital elements
Apogee altitude
511.918 km
Perigee altitude
508.913 km
Semi-major axis
6,888.552 km
Eccentricity
0.00022
Inclination
53.0517°
RAAN
57.762°
Arg. of periapsis
215.7318°
True anomaly
144.36766°
Mean anomaly
144.3531°
Eccentric anomaly
144.36038°
Mean motion
3.79622 °/min
Orbital period
94.83 mins
BSTAR
0.0018455
Loading maneuver chart data...
Computing Atmospheric mass density...

Documentation

Showing up to 5 results
|